This is the latest recevied weather packets stored in our database for station/object KD4KKF. If no packets are shown the sender has not sent any weather packets the latest 10 day(s).
| Time | Temp. | Humidity | Pressure | Rain* | Wind** | Luminosity | Snow |
|---|---|---|---|---|---|---|---|
| 1777745852 | 20° C | 36% | 1016 hPa | 0 mm | - | 819 W/m² | - |
| 1777745546 | 20° C | 42% | 1016 hPa | 0 mm | - | 839 W/m² | - |
| 1777745243 | 20° C | 41% | 1016.2 hPa | 0 mm | - | 822 W/m² | - |
| 1777744940 | 20° C | 45% | 1016.2 hPa | 0 mm | - | 826 W/m² | - |
| 1777744639 | 20° C | 41% | 1016 hPa | 0 mm | - | 797 W/m² | - |
| 1777744334 | 19.44° C | 44% | 1016.4 hPa | 0 mm | - | 790 W/m² | - |
| 1777744032 | 20° C | 43% | 1016.2 hPa | 0 mm | - | 794 W/m² | - |
| 1777743729 | 19.44° C | 43% | 1016.1 hPa | 0 mm | - | 793 W/m² | - |
| 1777743425 | 19.44° C | 45% | 1016.6 hPa | 0 mm | - | 806 W/m² | - |
| 1777743123 | 18.89° C | 40% | 1016.5 hPa | 0 mm | - | 804 W/m² | - |
| 1777742820 | 18.89° C | 41% | 1016.5 hPa | 0 mm | - | 783 W/m² | - |
| 1777742516 | 18.89° C | 43% | 1016.6 hPa | 0 mm | - | 781 W/m² | - |
| 1777742212 | 18.89° C | 42% | 1016.7 hPa | 0 mm | - | 784 W/m² | - |
| 1777741909 | 18.89° C | 41% | 1016.8 hPa | 0 mm | - | 778 W/m² | - |
| 1777741606 | 18.89° C | 45% | 1016.7 hPa | 0 mm | - | 758 W/m² | - |
| 1777741304 | 19.44° C | 44% | 1016.9 hPa | 0 mm | - | 765 W/m² | - |
| 1777741000 | 19.44° C | 44% | 1016.6 hPa | 0 mm | - | 782 W/m² | - |
| 1777740697 | 18.89° C | 45% | 1016.8 hPa | 0 mm | - | 789 W/m² | - |
| 1777740392 | 18.89° C | 42% | 1017.1 hPa | 0 mm | - | 773 W/m² | - |
| 1777740090 | 18.89° C | 44% | 1016.8 hPa | 0 mm | - | 749 W/m² | - |
| 1777739786 | 18.89° C | 49% | 1016.9 hPa | 0 mm | - | 767 W/m² | - |
| 1777739483 | 17.78° C | 47% | 1016.9 hPa | 0 mm | - | 747 W/m² | - |
| 1777739180 | 17.78° C | 49% | 1017.1 hPa | 0 mm | - | 738 W/m² | - |
| 1777738877 | 17.78° C | 46% | 1017.1 hPa | 0 mm | - | 740 W/m² | - |
| 1777738574 | 17.78° C | 46% | 1017 hPa | 0 mm | - | 741 W/m² | - |
* Rain latest hour (hover to see other rain measurements)
** Current wind speed in m/s (hover to see current wind gust speed)